#timestamp,LO_Frequency,Hit,StdDev 
1644170415.2,286047002.6,N
1644170435.0,286047001.0,N
1644170435.9,286047001.0,N
1644170455.7,286046996.6,N
1644170475.6,286047000.3,N
1644170495.4,286047001.1,N
1644170515.3,286046998.9,N
1644170535.1,286047000.8,N
1644170536.0,286047000.8,N
1644170555.8,286047001.0,N
1644170575.7,286046998.5,N
1644170595.5,286047004.3,N
1644170615.3,286047004.5,N
1644170635.2,286047009.0,Y
1644170655.0,286047007.6,P
1644170655.9,286047007.6,N
1644170675.8,286047006.7,N
1644170695.6,286047003.0,N
1644170715.4,286047000.8,N
1644170735.3,286047011.9,Y
1644170755.1,286046995.6,P
1644170775.9,286046999.5,N
1644170795.7,286046997.1,N
1644170815.5,286046995.4,N
1644170835.4,286046995.6,N
1644170855.2,286046992.8,N
1644170875.0,286046992.7,N
1644170875.9,286046992.7,N
1644170895.8,286046991.9,N
1644170915.6,286046992.6,N
1644170935.5,286046992.4,N
1644170955.3,286046990.4,N
1644170975.1,286046989.0,Y
1644170995.9,286046996.2,P
1644171015.7,286046997.6,P
1644171035.5,286046998.7,N
1644171055.4,286046998.2,N
1644171075.2,286047002.3,N
1644171095.1,286047002.1,N
1644171096.0,286047002.1,N
1644171115.8,286047001.9,N
1644171135.6,286047001.6,N
1644171155.5,286047002.8,N
1644171175.3,286047000.1,N
1644171195.2,286046999.8,N
1644171215.9,286047000.5,N
1644171235.7,286047000.8,N
1644171255.6,286047002.0,N
1644171275.4,286047002.8,N
1644171295.3,286047002.2,N
1644171315.1,286046999.7,N
1644171316.0,286046999.7,N
1644171335.8,286047002.2,N
1644171355.7,286047002.2,N
1644171375.5,286047002.3,N
1644171395.4,286047002.6,N
1644171415.2,286047002.6,N
1644171435.0,286047000.3,N
1644171435.9,286047000.3,N
1644171455.8,286046996.7,N
1644171475.6,286046999.2,N
1644171495.4,286046999.1,N
1644171515.3,286047001.0,N
1644171535.1,286047001.2,N
1644171555.9,286047004.8,N
1644171575.7,286047003.9,N
1644171595.5,286047003.9,N
1644171615.4,286047001.8,N
1644171635.2,286047000.0,N
1644171655.1,286047000.7,N
1644171656.0,286047000.7,N
1644171675.8,286046998.1,N
1644171695.6,286047000.2,N
1644171715.5,286046998.2,N
1644171735.3,286047005.7,Y
1644171755.2,286047010.1,P
1644171775.9,286047009.0,N
1644171795.7,286047007.2,N
1644171815.6,286047005.8,N
1644171835.4,286047004.4,N
1644171855.3,286047001.8,N
1644171875.1,286047001.8,N
1644171876.0,286047001.8,N
1644171895.8,286047007.1,N
1644171915.7,286047008.0,N
1644171935.5,286047008.5,N
1644171955.3,286047009.1,N
1644171975.2,286047006.9,N
1644171995.0,286047007.0,N
1644171995.9,286047007.0,N
1644172015.8,286047005.8,N
1644172035.6,286047003.7,N
1644172055.4,286047001.4,N
1644172075.3,286047003.2,N
1644172095.1,286047002.1,N
1644172115.8,286047001.0,N
1644172135.7,286047000.4,N
1644172155.5,286047000.8,N
1644172175.4,286046999.9,N
1644172195.2,286047000.3,N
1644172215.0,286046998.6,N
1644172215.9,286046998.6,N
1644172235.8,286046994.9,N
1644172255.6,286046996.2,N
1644172275.5,286046997.7,N
1644172295.3,286046997.7,N
1644172315.1,286046996.5,N
1644172335.9,286046995.2,N
1644172355.7,286046995.5,N
1644172375.6,286046995.1,N
1644172395.4,286047002.6,N
1644172415.2,286047007.0,N
1644172435.1,286047004.7,N
1644172436.0,286047004.7,N
1644172455.8,286047004.8,N
1644172475.7,286047002.9,N
1644172495.5,286047001.3,N
1644172515.3,286047000.3,N
1644172535.2,286047000.7,N
1644172555.0,286046998.3,N
1644172555.9,286046998.3,N
1644172575.8,286046996.5,N
1644172595.6,286046999.3,N
1644172615.4,286046999.2,N
1644172635.3,286046999.2,N
1644172655.1,286047001.1,N
1644172675.8,286046998.2,N
1644172695.7,286046997.3,N
1644172715.5,286046997.6,N
1644172735.4,286046997.9,N
1644172755.2,286046996.7,N
1644172775.0,286046998.6,N
1644172775.9,286046998.6,N
1644172795.8,286046996.5,N
1644172815.6,286046999.4,N
1644172835.5,286046999.2,N
1644172855.3,286047000.8,N
1644172875.1,286046998.9,N
1644172895.9,286046999.6,N
1644172915.7,286047000.5,N
1644172935.6,286047000.5,N
1644172955.4,286047000.7,N
1644172975.2,286047000.3,N
1644172995.1,286046998.3,N
1644172996.0,286046998.3,N
1644173015.8,286046999.6,N
1644173035.6,286047000.8,N
1644173055.5,286047000.4,N
1644173075.3,286047000.8,N
1644173095.2,286046998.8,N
1644173115.9,286046998.2,N
1644173135.7,286047000.5,N
1644173155.6,286046999.8,N
1644173175.4,286047000.6,N
1644173195.3,286047000.6,N
1644173215.1,286046998.7,N
1644173216.0,286046998.7,N
1644173235.8,286047000.9,N
1644173255.7,286046996.5,N
1644173275.5,286046995.5,Y
1644173295.3,286046995.5,P
1644173315.2,286046996.9,N
1644173335.0,286046997.0,N
1644173335.9,286046997.0,N
1644173355.8,286046996.9,N
1644173375.6,286046997.8,N
1644173395.4,286046996.3,Y
1644173415.3,286046997.3,P
1644173435.1,286046995.8,P
1644173455.9,286046997.2,P
1644173475.7,286046999.4,N
1644173495.5,286046999.6,N
1644173515.4,286046997.6,N
1644173535.2,286046999.2,N
1644173555.0,286047001.2,N
1644173555.9,286047001.2,N
1644173575.8,286047002.1,N
1644173595.6,286047001.4,N
1644173615.5,286047002.5,N
1644173635.3,286047002.2,N
1644173655.1,286047001.3,N
1644173675.9,286047002.1,N
1644173695.7,286047001.6,N
1644173715.5,286047004.2,N
1644173735.4,286047005.7,N
1644173755.2,286047003.5,N
1644173775.1,286047003.5,N
1644173776.0,286047003.5,N
1644173795.8,286047005.5,N
1644173815.6,286047005.8,N
1644173835.5,286047005.9,N
1644173855.3,286047005.3,N
1644173875.1,286047005.1,N
1644173895.9,286047003.3,N
1644173915.7,286047004.0,N
1644173935.6,286047004.0,N
1644173955.4,286047003.6,N
1644173975.2,286047003.4,N
1644173995.1,286047004.2,N
1644173996.0,286047004.2,N
